Погода в Серре

Бразилия     20°08′04″S   40°18′04″W
темп.,
°C
ветер,
м/с
пор.,
м/с
влажн.,
%
обл.,
%
осадки,
мм/ч
давл.,
гПа
погр.,
м
26 февраля, пт
пт2600:00+25с5981100 4.5 1012535
03:00+25с598399 4.6 1011741
06:00+25ссз488099 0.1 1012635
09:00+27с577494 0.1 1014884
12:00+29св676798 0.1 1014863
15:00+28св786796 0.1 1012765
18:00+26св597661 0.0 1012624
21:00+26ссв357977 0.0 1014489
27 февраля, сб
сб2700:00+25зсз238165 0.1 1014188
03:00+24зсз227982 1.2 1013174
06:00+24ссз227599 0.0 1014133
09:00+27с1263100 0.0 1016366
12:00+27в2366100 0.3 1016536
15:00+27св4570100 2.2 1014631
18:00+26св3576100 0.3 1014580
21:00+26св2380100 0.7 1015386
28 февраля, вс
вс2800:00+25св2380100 0.7 1015503
03:00+25с1279100 1.3 1013366
06:00+24з118293 0.3 1015129
09:00+27юв127197 0.6 1015600
12:00+28в3463100 0.2 1015906
15:00+28в4566100 0.2 1013736
18:00+27в457269 0.0 1013807
21:00+26всв457781 0.8 1014770
1 марта, пн
пн100:00+25св2478100 0.4 1014551
03:00+24зсз238191 1.1 1013191
06:00+24зюз227941 1.0 1014196
09:00+27всв126522 1.1 1015556
12:00+28в446510 0.1 1015846
15:00+28всв556345 0.1 1013843
18:00+27всв457317 0.0 1013616
21:00+26св237639 0.0 1014384
2 марта, вт
вт200:00+25ссв358053 0.2 1015629
03:00+24сз238131 0.3 1014225
06:00+24зсз11785 0.2 1015132
09:00+27св11648 0.3 1016525
12:00+28в446783 0.3 1016754
15:00+28в556668 0.6 1014894
18:00+27всв35741 0.1 1014685
21:00+26св23781 0.8 1016405